GSAT0208 (GALILEO 11)

Last updated on Thu Sep 03 2026 00:02:49 GMT+0000 (Coordinated Universal Time)

1 41175U 15079B 26243.92900906 .00000027 00000+0 00000+0 0 9999 2 41175 55.8721 99.1795 0003866 26.9705 333.1475 1.70473645 66487
UTC large
Height (km)
Speed (km/s)
/
Latitude / Longitude
Inclination (degrees)
Orbital Period (minutes)
Azimuth
Elevation
Range (km)
Doppler Factor

Next 0 passes for location: London (51.5072 / 0.1276)

No passes found over London.
GSAT0208 (GALILEO 11)